Date String (YYYY-MM-DD hh:mm:ss) UTC,Instrument flags,Ambient pressure (hPa),Sample flow (lpm),Bypass flow (lpm),Sample temperature (°C),Ambient temperature (°C),ASC tube jacket temperature (°C),LED temperature (°C),Box temperature (°C),Sample RH (%),Span deviation,Mass concentration (μg/m³),Mass concentration (μg/m³),Mass concentration (μg/m³)
DateTimeUTC,F1_M11,P_M11,Q1_M11,Q2_M11,T1_M11,T2_M11,T3_M11,T4_M11,T5_M11,U1_M11,ZSPAN_M11,X0_M11,X2_M11,X1_M11
2022-01-09 22:00:00,,0835.8,5.00,0.00,24.1,23.4,00.0,33.2,25.9,11.4,0000.0,0009.62,0005.89,0005.55
2022-01-09 22:01:00,,0835.8,5.00,0.00,24.1,23.4,00.0,33.2,25.9,11.5,0000.0,0009.26,0005.89,0005.55
2022-01-09 22:02:00,,0835.8,5.01,0.00,24.1,23.4,00.0,33.2,25.9,11.6,0000.0,0009.16,0005.87,0005.55
2022-01-09 22:03:00,,0835.8,4.99,0.00,24.1,23.4,00.0,33.1,25.9,11.5,0000.0,0008.97,0005.84,0005.55
2022-01-09 22:04:00,,0835.7,5.01,0.00,24.1,23.3,00.0,33.1,25.8,11.5,0000.0,0008.99,0005.85,0005.56
2022-01-09 22:05:00,,0835.7,4.99,0.00,24.1,23.3,00.0,33.1,25.7,11.5,0000.0,0009.07,0005.86,0005.56
2022-01-09 22:06:00,,0835.7,5.01,0.00,24.0,23.2,00.0,33.1,25.7,11.5,0000.0,0009.05,0005.86,0005.57
2022-01-09 22:07:00,,0835.8,4.99,0.00,24.0,23.2,00.0,33.1,25.6,11.5,0000.0,0009.10,0005.89,0005.59
2022-01-09 22:08:00,,0835.9,5.01,0.00,24.0,23.1,00.0,33.1,25.6,11.5,0000.0,0009.75,0005.93,0005.62
2022-01-09 22:09:00,,0835.9,5.02,0.00,23.9,23.1,00.0,33.1,25.6,11.6,0000.0,0009.75,0005.93,0005.64
2022-01-09 22:10:00,,0836.0,4.99,0.00,23.9,23.1,00.0,33.0,25.6,11.6,0000.0,0009.78,0005.95,0005.64
2022-01-09 22:11:00,,0836.1,5.01,0.00,23.9,23.2,00.0,33.0,25.7,11.8,0000.0,0010.03,0005.98,0005.65
2022-01-09 22:12:00,,0836.1,4.98,0.00,24.0,23.2,00.0,33.0,25.7,11.7,0000.0,0010.71,0006.01,0005.65
2022-01-09 22:13:00,,0836.0,5.00,0.00,24.0,23.2,00.0,33.0,25.7,11.7,0000.0,0010.78,0006.03,0005.66
2022-01-09 22:14:00,,0836.0,4.99,0.00,24.0,23.2,00.0,33.0,25.7,11.7,0000.0,0010.82,0006.06,0005.67
2022-01-09 22:15:00,,0836.0,5.00,0.00,24.0,23.2,00.0,33.0,25.7,11.8,0000.0,0011.31,0006.11,0005.68
2022-01-09 22:16:00,,0836.0,4.99,0.00,24.0,23.3,00.0,33.0,25.8,11.8,0000.0,0011.37,0006.11,0005.68
2022-01-09 22:17:00,,0836.1,5.01,0.00,24.0,23.4,00.0,33.0,25.9,11.8,0000.0,0011.48,0006.15,0005.67
2022-01-09 22:18:00,,0836.2,5.01,0.00,24.0,23.4,00.0,33.0,25.9,11.8,0000.0,0011.59,0006.14,0005.67
2022-01-09 22:19:00,,0836.2,4.99,0.00,24.1,23.5,00.0,33.0,26.0,11.7,0000.0,0010.81,0006.13,0005.67
2022-01-09 22:20:00,,0836.2,5.01,0.00,24.1,23.5,00.0,33.0,26.0,11.6,0000.0,0010.74,0006.12,0005.67
2022-01-09 22:21:00,,0836.2,5.00,0.00,24.2,23.6,00.0,33.0,26.1,11.6,0000.0,0010.73,0006.13,0005.68
2022-01-09 22:22:00,,0836.2,4.99,0.00,24.2,23.6,00.0,33.0,26.1,11.6,0000.0,0010.87,0006.12,0005.68
2022-01-09 22:23:00,,0836.2,5.01,0.00,24.2,23.7,00.0,33.1,26.1,11.6,0000.0,0010.59,0006.16,0005.69
2022-01-09 22:24:00,,0836.2,4.99,0.00,24.2,23.7,00.0,33.1,26.2,11.6,0000.0,0010.54,0006.15,0005.70
2022-01-09 22:25:00,,0836.2,5.00,0.00,24.3,23.7,00.0,33.1,26.2,11.6,0000.0,0010.48,0006.13,0005.69
2022-01-09 22:26:00,,0836.2,5.01,0.00,24.3,23.8,00.0,33.1,26.2,11.6,0000.0,0010.05,0006.09,0005.69
2022-01-09 22:27:00,,0836.1,4.99,0.00,24.3,23.8,00.0,33.1,26.3,11.6,0000.0,0009.88,0006.07,0005.70
2022-01-09 22:28:00,,0836.2,5.00,0.00,24.4,23.8,00.0,33.1,26.3,11.5,0000.0,0010.41,0006.05,0005.70
2022-01-09 22:29:00,,0836.2,5.00,0.00,24.4,23.8,00.0,33.2,26.3,11.5,0000.0,0010.78,0006.05,0005.70
2022-01-09 22:30:00,,0836.2,5.00,0.00,24.4,23.8,00.0,33.2,26.3,11.5,0000.0,0010.84,0006.06,0005.70
2022-01-09 22:31:00,,0836.2,4.99,0.00,24.4,23.9,00.0,33.2,26.4,11.5,0000.0,0010.83,0006.06,0005.70
2022-01-09 22:32:00,,0836.2,5.01,0.00,24.5,23.9,00.0,33.2,26.4,11.4,0000.0,0011.15,0006.06,0005.70
2022-01-09 22:33:00,,0836.3,5.01,0.00,24.5,23.9,00.0,33.2,26.4,11.4,0000.0,0011.23,0006.05,0005.68
2022-01-09 22:34:00,,0836.3,5.00,0.00,24.5,23.9,00.0,33.3,26.4,11.4,0000.0,0010.79,0006.04,0005.70
2022-01-09 22:35:00,,0836.3,5.00,0.00,24.5,23.9,00.0,33.3,26.5,11.3,0000.0,0010.99,0006.05,0005.71
2022-01-09 22:36:00,,0836.3,4.99,0.00,24.5,24.0,00.0,33.3,26.5,11.4,0000.0,0011.07,0006.07,0005.70
2022-01-09 22:37:00,,0836.3,5.01,0.00,24.6,24.0,00.0,33.3,26.5,11.4,0000.0,0011.10,0006.08,0005.70
2022-01-09 22:38:00,,0836.3,4.99,0.00,24.6,24.0,00.0,33.3,26.5,11.3,0000.0,0011.08,0006.05,0005.69
2022-01-09 22:39:00,,0836.3,5.01,0.00,24.6,24.0,00.0,33.3,26.5,11.3,0000.0,0010.86,0006.06,0005.70
2022-01-09 22:40:00,,0836.3,4.99,0.00,24.6,24.0,00.0,33.4,26.5,11.3,0000.0,0010.27,0006.07,0005.71
2022-01-09 22:41:00,,0836.4,4.99,0.00,24.6,24.1,00.0,33.4,26.5,11.2,0000.0,0010.19,0006.06,0005.71
2022-01-09 22:42:00,,0836.4,5.01,0.00,24.6,24.1,00.0,33.4,26.5,11.2,0000.0,0010.72,0006.07,0005.73
2022-01-09 22:43:00,,0836.4,4.98,0.00,24.7,24.1,00.0,33.4,26.6,11.2,0000.0,0010.44,0006.07,0005.73
2022-01-09 22:44:00,,0836.4,5.01,0.00,24.7,24.1,00.0,33.4,26.6,11.2,0000.0,0010.27,0006.07,0005.75
2022-01-09 22:45:00,,0836.4,5.00,0.00,24.7,24.1,00.0,33.4,26.6,11.2,0000.0,0010.91,0006.06,0005.75
2022-01-09 22:46:00,,0836.5,5.01,0.00,24.7,24.1,00.0,33.5,26.6,11.1,0000.0,0010.81,0006.09,0005.76
2022-01-09 22:47:00,,0836.5,4.99,0.00,24.7,24.1,00.0,33.5,26.6,11.2,0000.0,0010.79,0006.10,0005.78
2022-01-09 22:48:00,,0836.5,5.02,0.00,24.7,24.1,00.0,33.5,26.6,11.2,0000.0,0010.87,0006.14,0005.80
2022-01-09 22:49:00,,0836.5,5.00,0.00,24.7,24.1,00.0,33.5,26.6,11.2,0000.0,0010.97,0006.18,0005.81
2022-01-09 22:50:00,,0836.5,4.99,0.00,24.8,24.1,00.0,33.5,26.6,11.2,0000.0,0011.25,0006.21,0005.83
2022-01-09 22:51:00,,0836.5,5.01,0.00,24.8,24.2,00.0,33.5,26.7,11.2,0000.0,0011.22,0006.19,0005.82
2022-01-09 22:52:00,,0836.5,4.99,0.00,24.8,24.2,00.0,33.6,26.7,11.2,0000.0,0011.20,0006.18,0005.81
2022-01-09 22:53:00,,0836.5,5.01,0.00,24.8,24.2,00.0,33.6,26.7,11.2,0000.0,0011.49,0006.17,0005.79
2022-01-09 22:54:00,,0836.5,4.98,0.00,24.8,24.2,00.0,33.6,26.7,11.2,0000.0,0011.51,0006.17,0005.78
2022-01-09 22:55:00,,0836.5,5.01,0.00,24.8,24.2,00.0,33.6,26.7,11.2,0000.0,0011.47,0006.16,0005.77
2022-01-09 22:56:00,,0836.5,5.00,0.00,24.8,24.2,00.0,33.6,26.7,11.2,0000.0,0010.84,0006.13,0005.75
2022-01-09 22:57:00,,0836.5,4.99,0.00,24.8,24.2,00.0,33.6,26.7,11.2,0000.0,0010.71,0006.08,0005.73
2022-01-09 22:58:00,,0836.5,4.99,0.00,24.8,24.2,00.0,33.6,26.7,11.2,0000.0,0011.00,0006.09,0005.72
2022-01-09 22:59:00,,0836.5,5.01,0.00,24.9,24.2,00.0,33.7,26.7,11.2,0000.0,0011.47,0006.05,0005.71
